Location: Bodham
(52.9000°N, 1.1667°E)
Time: 14:08:41
(UTC+00:00)

Cosmos 2112 Rocket - Pass Details

Date: 17 October 2025
Orbit: 753 x 782 km, 74.0° (Epoch: 13 November)

Event Time Altitude Azimuth Distance (km) Brightness Sun altitude
Rises 03:33:53 0° 336° (NNW) 3,255 7.2 -26.2°
Reaches altitude 10° 03:36:54 10° 353° (N) 2,319 6.6 -25.8°
Maximum altitude 03:40:46 20° 41° (NE) 1,705 6.4 -25.3°
Drops below altitude 10° 03:44:36 10° 89° (E) 2,297 7.4 -24.7°
Sets 03:47:34 0° 106° (ESE) 3,214 8.1 -24.3°
